Location: Donald C. Martin Observatory
(38.3885°N, 82.3916°W)
Time: 09:02:03
(UTC-04:00)

Cosmos 1484 Rocket - Visible Passes

Search period start: 20 October 2014 00:00
Search period end: 30 October 2014 00:00
Orbit: 515 x 572 km, 97.4° (Epoch: 20 October)

Date Brightness Start Highest point End Pass type
(mag) Time Alt. Az. Time Alt. Az. Time Alt. Az.
20 Oct 4.5 20:11:33 20° NE 20:11:33 20° NE 20:13:19 10° NNE visible
20 Oct 5.9 21:47:09 12° NW 21:47:09 12° NW 21:47:39 10° NW visible
21 Oct 4.7 20:05:34 17° NE 20:05:34 17° NE 20:07:02 10° NNE visible
21 Oct 5.9 21:41:10 13° NW 21:41:10 13° NW 21:41:43 10° NW visible
22 Oct 4.8 19:59:36 15° NE 19:59:36 15° NE 20:00:41 10° NNE visible
22 Oct 5.8 21:35:12 13° NW 21:35:12 13° NW 21:35:45 10° NW visible
23 Oct 5.0 19:53:36 13° NE 19:53:36 13° NE 19:54:18 10° NNE visible
23 Oct 5.7 21:29:12 13° NW 21:29:12 13° NW 21:29:45 10° NNW visible
24 Oct 5.1 19:47:37 11° NE 19:47:37 11° NE 19:47:49 10° NNE visible
24 Oct 5.7 21:23:13 13° NNW 21:23:13 13° NNW 21:23:42 10° NNW visible
25 Oct 5.7 21:17:13 13° NNW 21:17:13 13° NNW 21:17:38 10° NNW visible
26 Oct 5.6 21:11:12 12° NNW 21:11:12 12° NNW 21:11:32 10° NNW visible
27 Oct 5.6 21:05:12 11° NNW 21:05:12 11° NNW 21:05:24 10° NNW visible
28 Oct 5.7 20:59:10 10° NNW 20:59:10 10° NNW 20:59:15 10° NNW visible
